Regional Weather Roundup
Issued by NWS

Home | Current Version | Previous Version | Text Only | Print | Product List | Glossary Off
Versions: 1 2 3 4 5 6 7 8 9 10 11 12 13 14 15 16 17 18 19 20 21 22 23 24 25 26 27 28 29 30 31 32 33 34 35 36 37 38 39 40 41 42 43 44 45 46 47 48 49 50

000
ASUS43 KMPX 282101
RWRMN
WEATHER ROUNDUP FOR MINNESOTA
NATIONAL WEATHER SERVICE TWIN CITIES/CHANHASSEN MN
400 PM CDT SAT MAR 28 2015


NOTE: "FAIR" INDICATES FEW OR NO CLOUDS BELOW 12,000 FEET WITH NO
SIGNIFICANT WEATHER AND/OR OBSTRUCTIONS TO VISIBILITY. N/A MEANS
CURRENT SKY AND/OR WEATHER CONDITIONS ARE NOT AVAILABLE.

MNZ060>063-068>070-282200-
   Twin Cities Metro

CITY           SKY/WX    TMP DP  RH WIND       PRES   REMARKS
TWIN CITIES    MOSUNNY   40  20  44 S15G23    30.15F
ST PAUL        SUNNY     42  12  29 S16G25    30.16F
CRYSTAL        SUNNY     43  17  35 S18G24    30.12F
LAKEVILLE      FAIR      36  25  64 SE13      30.15F
EDEN PRAIRIE   SUNNY     42  19  39 S17       30.13F
SOUTH ST PAUL  SUNNY     42  15  33 S10G21    30.15F
LAKE ELMO      FAIR      41  18  38 S15G22    30.16F
$$
MNZ001>005-007-008-013>017-022>024-027-028-282200-
   Northwest Minnesota

CITY           SKY/WX    TMP DP  RH WIND       PRES   REMARKS
BEMIDJI        SUNNY     44  23  42 S13G24    29.92F
HALLOCK        PTSUNNY   46  30  53 S24G35    29.78F
ROSEAU         PTSUNNY   45  30  57 S21       29.84F
WARROAD        MOSUNNY   45  30  57 SW18G26   29.85F
THIEF RVR FALL SUNNY     45  28  53 S25G31    29.86F
CROOKSTON      SUNNY     48  27  43 S29G38    29.87F
FOSSTON        SUNNY     45  25  45 S25       29.90F
DETROIT LAKES  SUNNY     43  28  56 S23G30    29.94F
MOORHEAD       SUNNY     48  27  43 S22G35    29.91F
PARK RAPIDS    SUNNY     49  22  34 S24G31    29.96F
MAHNOMEN       FAIR      44  26  49 S18G32    29.92F
$$
MNZ006-009>011-018-025>026-282200-
   North Central Minnesota

CITY           SKY/WX    TMP DP  RH WIND       PRES   REMARKS
BAUDETTE       MOSUNNY   44  21  40 SW21G28   29.88F
FLAG ISLAND    MOSUNNY   36  27  69 S17       29.85F
INTL FALLS     SUNNY     44  12  27 S14G23    29.92F
WASKISH        SUNNY     46  21  36 S10G20    29.90F
BIG FORK       SUNNY     46  16  29 S18G25    29.96F
LONGVILLE      SUNNY     45  19  36 S18G24    29.97F
GRAND RAPIDS   SUNNY     43  16  33 S15       29.99F
CRANE LAKE     MOSUNNY   43   1  17 S12G20    29.99F
ORR            MOSUNNY   45   1  16 S15G21    29.95F
COOK           SUNNY     43   9  24 S15G26    29.98F
WALKER         FAIR      42  21  42 S16G25    29.96F
$$
MNZ012-019>021-037-282200-
   Northeast Minnesota

CITY           SKY/WX    TMP DP  RH WIND       PRES   REMARKS
DULUTH         SUNNY     42   9  25 S18G25    30.04F
ELY            SUNNY     43   3  19 S13G20    29.99F
HIBBING        SUNNY     43   6  21 SW17G23   30.00F
EVELETH        SUNNY     43   7  22 S17G23    30.01F
DULUTH HARBOR  SUNNY     45   7  21 SW16G24   30.08F
TWO HARBORS    SUNNY     45  18  33 S12G20    30.04F
SILVER BAY     SUNNY     43   9  24 S13G25    30.04F
GRAND MARAIS     N/A     31  21  66 SW5       30.11F WCI  26
G MARAIS ARPRT SUNNY     32   7  34 S12G22    30.04F WCI  23
$$
MNZ029>031-032-039>041-046>048-054>057-064-282200-
   West Central Minnesota

CITY           SKY/WX    TMP DP  RH WIND       PRES   REMARKS
FERGUS FALLS   SUNNY     45  25  45 S24G32    29.97F
WHEATON        SUNNY     46  28  49 SE23G32   29.95F
MORRIS         MOSUNNY   46  32  57 S24G32    29.97F
ALEXANDRIA     CLOUDY    40  26  57 S18G29    30.01F
ELBOW LAKE     PTSUNNY   44  29  55 S29G35    29.96F
WADENA         MOSUNNY   43  25  49 S17G28    29.98F
GLENWOOD       PTSUNNY   41  28  60 S23G29    30.03F
APPLETON       SUNNY     50  28  43 S20G26    29.98F
BENSON         PTSUNNY   46  27  46 S20G28    30.02F
ORTONVILLE     SUNNY     50  28  43 S21G29    29.95F
MADISON        SUNNY     52  28  40 S20G30    29.98F
WILLMAR        FAIR      43  28  56 S13G21    30.05F
$$
MNZ033>034-036-042>043-049>051-058-059-282200-
   Central Minnesota

CITY           SKY/WX    TMP DP  RH WIND       PRES   REMARKS
ST CLOUD       SUNNY     43  20  39 S22G28    30.07F
SAUK CENTRE    CLOUDY    41  26  54 S17G30    30.04F
PAYNESVILLE    PTSUNNY   39  24  55 E17G24    30.06F
AITKIN         SUNNY     46  18  31 S18G24    30.02F
PINE RIVER     SUNNY     43  25  49 S16G25    30.02F
BRAINERD       SUNNY     43  19  38 S22G32    30.03F
STAPLES        SUNNY     43  21  42 S21G26    30.00F
LONG PRAIRIE   CLOUDY    41  28  60 S21       30.03F
LITTLE FALLS   SUNNY     43  18  36 S17       30.05F
LITCHFIELD     SUNNY     43  23  45 SE10G20   30.08F
MAPLE LAKE     SUNNY     43  24  46 SE12G20   30.10F
$$
MNZ037-044-045-052-053-282200-
   East Central Minnesota

CITY           SKY/WX    TMP DP  RH WIND       PRES   REMARKS
PRINCETON      SUNNY     45  18  33 S17       30.09F
MORA           SUNNY     43  18  36 SW13G20   30.09F
CAMBRIDGE      SUNNY     45  23  42 S15G21    30.09F
RUSH CITY      SUNNY     42  15  32 S16       30.11F
MOOSE LAKE     SUNNY     43  18  36 S14G22    30.04F
HINCKLEY       FAIR      43  18  36 S20G26    30.09F
CLOQUET        SUNNY     43   1  17 S14G22    30.04F
MCGREGOR       SUNNY     43  19  39 S16       30.04F
$$
MNZ071>073-080-081-089-090-097-098-282200-
   Southwest Minnesota

CITY           SKY/WX    TMP DP  RH WIND       PRES   REMARKS
MONTEVIDEO     MOSUNNY   46  30  53 SW15G28   30.02F
GRANITE FALLS  MOSUNNY   46  31  54 SE20G26   30.05F
CANBY          SUNNY     50  28  41 S15G22    29.99F
MARSHALL       MOSUNNY   46  27  46 S24       30.02F
REDWOOD FALLS  PTSUNNY   47  28  47 S17G31    30.05F
OLIVIA         PTSUNNY   43  28  56 S18       30.05F
PIPESTONE      SUNNY     48  28  46 S21G28    29.99F
WINDOM         SUNNY     45  27  49 S17G23    30.06F
WORTHINGTON    MOSUNNY   45  28  53 SE18G25   30.05F
JACKSON        SUNNY     45  25  45 S22       30.08F
TRACY          MOSUNNY   47  31  53 S18G24    30.03F
SLAYTON        MOSUNNY   46  27  48 S20G26    30.02F
$$
MNZ065>067-074>077-082>085-091>093-282200-
   South Central Minnesota

CITY           SKY/WX    TMP DP  RH WIND       PRES   REMARKS
MANKATO        SUNNY     43  21  42 S15       30.12F
NEW ULM        MOSUNNY   45  23  42 S20G25    30.07F
ST JAMES       SUNNY     46  23  39 S18G28    30.09F
FAIRMONT       SUNNY     45  21  39 S22G29    30.08F
GLENCOE        SUNNY     43  27  53 SE10      30.10F
FARIBAULT      SUNNY     39  25  56 SE14      30.15F
OWATONNA       SUNNY     39  25  56 SE14      30.14F
WASECA         SUNNY     43  25  49 S14G20    30.15F
ALBERT LEA     SUNNY     45  21  39 S13       30.13F
$$
MNZ078>079-086>088-094>096-282200-
   Southeast Minnesota

CITY           SKY/WX    TMP DP  RH WIND       PRES   REMARKS
ROCHESTER      SUNNY     34  20  56 S13       30.18F WCI  25
RED WING       SUNNY     41  12  30 SW14G20   30.17F
STANTON        SUNNY     39  24  55 S10G17    30.15F
DODGE CENTER   SUNNY     36  25  64 SE15      30.16F
WINONA         SUNNY     41  14  33 S9        30.22F
AUSTIN         SUNNY     39  21  48 SE8       30.15F
PRESTON        SUNNY     35  18  50 S12       30.19F WCI  27
$$
ABBREVIATIONS USED IN REMARKS
   TC - TEMPERATURES IN CELSIUS
  WCI - WIND CHILL INDEX
   HX - HEAT INDEX
  VSB - VISIBILITY
$$


USA.gov is the U.S. government's official web portal to all federal, state and local government web resources and services.